This is the latest recevied weather packets stored in our database for station/object KI4BIY. If no packets are shown the sender has not sent any weather packets the latest 10 day(s).
| Time | Temp. | Humidity | Pressure | Rain* | Wind** | Luminosity | Snow |
|---|---|---|---|---|---|---|---|
| 1777837108 | 22.78° C | 39% | 1018.1 hPa | 0 mm | - | 580 W/m² | - |
| 1777836804 | 22.78° C | 38% | 1018.1 hPa | 0 mm | - | 601 W/m² | - |
| 1777836500 | 22.78° C | 38% | 1018.1 hPa | 0 mm | - | 643 W/m² | - |
| 1777836196 | 22.78° C | 34% | 1017.9 hPa | 0 mm | - | 646 W/m² | - |
| 1777835892 | 22.78° C | 40% | 1018.2 hPa | 0 mm | - | 666 W/m² | - |
| 1777835589 | 22.78° C | 38% | 1017.9 hPa | 0 mm | - | 680 W/m² | - |
| 1777835286 | 22.78° C | 37% | 1018.3 hPa | 0 mm | - | 594 W/m² | - |
| 1777834983 | 22.78° C | 38% | 1018.4 hPa | 0 mm | - | 439 W/m² | - |
| 1777834680 | 22.78° C | 38% | 1018.6 hPa | 0 mm | - | 346 W/m² | - |
| 1777834375 | 22.22° C | 39% | 1018.6 hPa | 0 mm | - | 426 W/m² | - |
| 1777834075 | 21.67° C | 40% | 1018.5 hPa | 0 mm | - | 573 W/m² | - |
| 1777833772 | 21.67° C | 41% | 1018.6 hPa | 0 mm | - | 669 W/m² | - |
| 1777833468 | 22.22° C | 38% | 1018.6 hPa | 0 mm | - | 679 W/m² | - |
| 1777833166 | 22.22° C | 37% | 1018.8 hPa | 0 mm | - | 671 W/m² | - |
| 1777832863 | 22.22° C | 39% | 1019 hPa | 0 mm | - | 691 W/m² | - |
| 1777832562 | 22.22° C | 40% | 1018.9 hPa | 0 mm | - | 704 W/m² | - |
| 1777832258 | 22.22° C | 41% | 1019.3 hPa | 0 mm | - | 661 W/m² | - |
| 1777831955 | 22.22° C | 38% | 1019.3 hPa | 0 mm | - | 678 W/m² | - |
| 1777831651 | 22.22° C | 38% | 1019.4 hPa | 0 mm | - | 655 W/m² | - |
| 1777831350 | 22.22° C | 39% | 1019.6 hPa | 0 mm | - | 624 W/m² | - |
| 1777831046 | 21.67° C | 39% | 1019.6 hPa | 0 mm | - | 589 W/m² | - |
| 1777830745 | 21.67° C | 39% | 1019.7 hPa | 0 mm | - | 638 W/m² | - |
| 1777830440 | 21.67° C | 41% | 1019.6 hPa | 0 mm | - | 703 W/m² | - |
| 1777830138 | 21.67° C | 39% | 1020.1 hPa | 0 mm | - | 737 W/m² | - |
| 1777829833 | 21.11° C | 39% | 1019.9 hPa | 0 mm | - | 718 W/m² | - |
* Rain latest hour (hover to see other rain measurements)
** Current wind speed in m/s (hover to see current wind gust speed)